DW6949 Weather Reports


Display with metric or nautical units.
time (UTC)temp
F
wind
direction
speed
MPH
gust
MPH
rain 1hr
in
rain 24hr
in
rain mn
in
humidity
%
barometer
mb
20260506001552 80 98 6.0 14.0 0.00 0.00 0.00 78 1008.0
20260506000047 80 98 4.0 12.0 0.00 0.00 0.00 78 1008.0
20260505234551 80 115 8.0 14.0 0.00 0.00 0.00 77 1007.9
20260505233050 81 110 6.0 15.0 0.00 0.00 0.00 78 1007.8
20260505231601 81 112 5.0 14.0 0.00 0.00 0.00 78 1007.7
20260505230056 81 75 7.0 17.0 0.00 0.00 0.00 77 1007.7
20260505224548 81 115 6.0 18.0 0.00 0.00 0.00 78 1007.8
20260505223050 82 124 5.0 14.0 0.00 0.00 0.00 77 1008.0
20260505221549 82 90 5.0 17.0 0.00 0.00 0.00 77 1007.9
20260505220046 82 118 5.0 14.0 0.00 0.00 0.00 77 1008.1
20260505214550 82 122 5.0 16.0 0.00 0.00 0.00 77 1008.1
20260505213056 82 119 7.0 19.0 0.00 0.00 0.00 75 1008.3
20260505211552 82 102 6.0 14.0 0.00 0.00 0.00 76 1008.5
20260505210048 82 122 4.0 12.0 0.00 0.00 0.00 77 1008.7
20260505204554 82 77 4.0 13.0 0.00 0.00 0.00 78 1009.1
20260505203047 83 103 5.0 13.0 0.00 0.00 0.00 77 1009.2
20260505201551 83 125 4.0 14.0 0.00 0.00 0.00 76 1009.4
20260505200052 82 125 6.0 11.0 0.00 0.00 0.00 76 1009.4
20260505194551 82 127 4.0 12.0 0.00 0.00 0.00 76 1009.7
20260505193050 82 107 5.0 13.0 0.00 0.00 0.00 78 1009.7
20260505191608 82 116 3.0 12.0 0.00 0.00 0.00 79 1009.9
20260505190052 82 89 3.0 15.0 0.00 0.00 0.00 77 1009.7
20260505184552 81 89 2.0 6.0 0.00 0.00 0.00 78 1010.0
20260505183049 81 121 3.0 12.0 0.00 0.00 0.00 78 1010.1
20260505181548 81 133 3.0 10.0 0.00 0.00 0.00 77 1010.2
20260505174554 80 68 6.0 12.0 0.00 0.00 0.00 80 1010.6
20260505173052 79 129 3.0 9.0 0.00 0.00 0.00 82 1010.8
20260505171549 79 109 3.0 11.0 0.00 0.00 0.00 82 1010.7
20260505170049 79 103 6.0 11.0 0.00 0.00 0.00 81 1010.7
20260505164549 79 134 3.0 12.0 0.00 0.00 0.00 80 1010.8
20260505163046 79 122 3.0 10.0 0.00 0.00 0.00 82 1010.7
20260505161556 78 132 5.0 17.0 0.00 0.00 0.00 83 1010.7
20260505153050 77 91 4.0 12.0 0.00 0.00 0.00 85 1010.4
20260505151553 77 127 6.0 14.0 0.00 0.00 0.00 86 1010.4
20260505124546 72 123 1.0 5.0 0.00 0.00 0.00 92 1010.1
20260505123047 71 119 2.0 5.0 0.00 0.00 0.00 93 1010.0
20260505121553 71 118 2.0 6.0 0.00 0.00 0.00 93 1009.8
20260505120053 70 121 2.0 6.0 0.00 0.00 0.00 93 1009.5
20260505114556 70 120 2.0 4.0 0.00 0.00 0.00 92 1009.6
20260505113052 70 122 1.0 5.0 0.00 0.00 0.00 92 1009.7
20260505111552 70 120 2.0 6.0 0.00 0.00 0.00 92 1009.5
20260505101605 70 124 1.0 4.0 0.00 0.00 0.00 92 1009.7
20260505094548 70 103 2.0 6.0 0.00 0.00 0.00 91 1009.8
20260505093055 70 103 3.0 6.0 0.00 0.00 0.00 91 1009.8
20260505091545 70 118 2.0 7.0 0.00 0.00 0.00 90 1009.9
20260505090045 70 120 2.0 7.0 0.00 0.00 0.00 90 1010.0
20260505084546 70 109 2.0 7.0 0.00 0.00 0.00 90 1010.1
20260505083048 70 125 1.0 4.0 0.00 0.00 0.00 90 1010.2
20260505081558 70 115 2.0 5.0 0.00 0.00 0.00 89 1010.1
20260505080057 70 124 2.0 6.0 0.00 0.00 0.00 89 1010.3
20260505074551 70 103 3.0 7.0 0.00 0.00 0.00 89 1010.4
20260505073049 70 121 3.0 7.0 0.00 0.00 0.00 88 1010.5
20260505071554 70 121 2.0 6.0 0.00 0.00 0.00 88 1010.6
20260505070052 70 99 3.0 7.0 0.00 0.00 0.00 88 1010.8
20260505064549 70 96 3.0 7.0 0.00 0.00 0.00 87 1010.9
20260505063051 70 123 2.0 5.0 0.00 0.00 0.00 87 1011.1
20260505061546 70 111 3.0 8.0 0.00 0.00 0.00 86 1011.2
20260505060052 70 123 4.0 9.0 0.00 0.00 0.00 86 1011.4
20260505054551 70 117 4.0 8.0 0.00 0.00 0.00 85 1011.3
20260505053049 70 89 3.0 9.0 0.00 0.00 0.00 85 1011.6
20260505051552 70 125 3.0 8.0 0.00 0.00 0.00 84 1011.9
20260505041549 71 118 4.0 8.0 0.00 0.00 0.00 82 1011.9
20260505040056 71 115 3.0 9.0 0.00 0.00 0.00 82 1012.1
20260505034549 71 121 4.0 9.0 0.00 0.00 0.00 82 1012.2
20260505033049 71 117 4.0 9.0 0.00 0.00 0.00 81 1012.4
20260505031551 72 121 4.0 9.0 0.00 0.00 0.00 81 1012.2
20260505030045 72 121 3.0 10.0 0.00 0.00 0.00 80 1012.1
20260505024542 72 78 4.0 12.0 0.00 0.00 0.00 79 1012.2
20260505023052 72 70 5.0 11.0 0.00 0.00 0.00 79 1012.1
20260505021546 73 124 6.0 11.0 0.00 0.00 0.00 78 1011.9
20260505020051 73 93 5.0 13.0 0.00 0.00 0.00 77 1011.7
20260505014552 74 105 5.0 14.0 0.00 0.00 0.00 77 1011.8
20260505013051 74 117 5.0 11.0 0.00 0.00 0.00 76 1011.6
20260505011553 74 103 6.0 13.0 0.00 0.00 0.00 75 1011.7
20260505010110 74 68 4.0 10.0 0.00 0.00 0.00 74 1011.6
20260505004553 75 98 5.0 12.0 0.00 0.00 0.00 73 1011.6
20260505003053 75 93 4.0 11.0 0.00 0.00 0.00 73 1011.5